Time,TemperatureF,DewpointF,PressureIn,WindDirection,WindDirectionDegrees,WindSpeedMPH,WindSpeedGustMPH,Humidity,HourlyPrecipIn,Conditions,Clouds,dailyrainin,SoftwareType,DateUTC
2013-04-18 00:03:00,44.2,2.2,29.44,SSE,160,3.1,4.5,17,0.00,,---,0.00,VWS V14.01,2013-04-18 07:03:00,
2013-04-18 00:08:00,44.6,2.5,29.44,SE,138,0.0,0.0,17,0.00,,---,0.00,VWS V14.01,2013-04-18 07:08:00,
2013-04-18 00:13:00,43.0,2.4,29.44,NNE,13,4.0,4.0,18,0.00,,---,0.00,VWS V14.01,2013-04-18 07:13:00,
2013-04-18 00:18:00,43.3,2.7,29.47,ESE,103,0.0,4.5,18,0.00,,---,0.00,VWS V14.01,2013-04-18 07:18:00,
2013-04-18 00:23:00,43.5,2.8,29.47,ESE,103,0.0,0.0,18,0.00,,---,0.00,VWS V14.01,2013-04-18 07:23:00,
2013-04-18 00:28:00,43.7,3.0,29.47,SE,130,3.1,5.4,18,0.00,,---,0.00,VWS V14.01,2013-04-18 07:28:00,
2013-04-18 00:33:00,44.1,2.0,29.47,East,100,0.0,0.0,17,0.00,,---,0.00,VWS V14.01,2013-04-18 07:33:00,
2013-04-18 00:38:00,45.5,3.2,29.47,SSE,161,0.0,0.0,17,0.00,,---,0.00,VWS V14.01,2013-04-18 07:38:00,
2013-04-18 00:43:00,42.6,2.1,29.47,NNW,340,3.6,3.6,18,0.00,,---,0.00,VWS V14.01,2013-04-18 07:43:00,
2013-04-18 00:48:00,42.4,1.9,29.47,NNW,328,0.0,3.1,18,0.00,,---,0.00,VWS V14.01,2013-04-18 07:48:00,
2013-04-18 00:53:00,41.5,1.2,29.47,North,10,3.1,3.1,18,0.00,,---,0.00,VWS V14.01,2013-04-18 07:53:00,
2013-04-18 00:58:00,41.9,3.8,29.47,NNE,28,0.0,0.0,20,0.00,,---,0.00,VWS V14.01,2013-04-18 07:58:00,
2013-04-18 01:03:00,42.4,4.2,29.47,NNE,28,0.0,0.0,20,0.00,,---,0.00,VWS V14.01,2013-04-18 08:03:00,
2013-04-18 01:08:00,43.7,5.3,29.47,NNE,33,0.0,2.7,20,0.00,,---,0.00,VWS V14.01,2013-04-18 08:08:00,
2013-04-18 01:13:00,44.4,5.9,29.47,ESE,111,4.0,4.5,20,0.00,,---,0.00,VWS V14.01,2013-04-18 08:13:00,
2013-04-18 01:18:00,44.8,6.2,29.47,SSE,154,5.4,5.8,20,0.00,,---,0.00,VWS V14.01,2013-04-18 08:18:00,
2013-04-18 01:23:00,46.6,6.5,29.47,South,180,4.9,4.9,19,0.00,,---,0.00,VWS V14.01,2013-04-18 08:23:00,
2013-04-18 01:28:00,46.2,6.2,29.47,ESE,121,0.0,4.0,19,0.00,,---,0.00,VWS V14.01,2013-04-18 08:28:00,
2013-04-18 01:33:00,45.3,6.6,29.47,ESE,109,0.0,0.0,20,0.00,,---,0.00,VWS V14.01,2013-04-18 08:33:00,
2013-04-18 01:38:00,45.5,5.7,29.47,East,92,0.0,0.0,19,0.00,,---,0.00,VWS V14.01,2013-04-18 08:38:00,
2013-04-18 01:43:00,46.4,6.4,29.47,ESE,105,3.6,4.0,19,0.00,,---,0.00,VWS V14.01,2013-04-18 08:43:00,
2013-04-18 01:48:00,45.9,5.9,29.44,ESE,107,3.1,3.1,19,0.00,,---,0.00,VWS V14.01,2013-04-18 08:48:00,
2013-04-18 01:53:00,45.5,5.7,29.44,ESE,113,0.0,2.7,19,0.00,,---,0.00,VWS V14.01,2013-04-18 08:53:00,
2013-04-18 01:59:00,44.4,2.3,29.44,South,175,3.1,3.6,17,0.00,,---,0.00,VWS V14.01,2013-04-18 08:59:00,
2013-04-18 02:04:00,41.9,1.5,29.47,North,356,6.3,6.3,18,0.00,,---,0.00,VWS V14.01,2013-04-18 09:04:00,
2013-04-18 02:09:00,39.7,3.0,29.47,North,351,5.4,6.3,21,0.00,,---,0.00,VWS V14.01,2013-04-18 09:09:00,
2013-04-18 02:15:00,40.6,3.8,29.47,North,351,0.0,3.6,21,0.00,,---,0.00,VWS V14.01,2013-04-18 09:15:00,
2013-04-18 02:20:00,40.6,3.8,29.47,North,351,0.0,0.0,21,0.00,,---,0.00,VWS V14.01,2013-04-18 09:20:00,
2013-04-18 02:25:00,40.5,3.6,29.47,North,356,0.0,0.0,21,0.00,,---,0.00,VWS V14.01,2013-04-18 09:25:00,
2013-04-18 02:31:00,40.1,3.3,29.47,North,356,0.0,0.0,21,0.00,,---,0.00,VWS V14.01,2013-04-18 09:31:00,
2013-04-18 02:36:00,39.9,3.2,29.47,NNW,343,2.7,4.0,21,0.00,,---,0.00,VWS V14.01,2013-04-18 09:36:00,
2013-04-18 02:41:00,39.4,2.7,29.47,NNE,21,0.0,0.0,21,0.00,,---,0.00,VWS V14.01,2013-04-18 09:41:00,
2013-04-18 02:46:00,40.5,3.6,29.47,ENE,58,3.6,3.6,21,0.00,,---,0.00,VWS V14.01,2013-04-18 09:46:00,
2013-04-18 02:51:00,41.4,4.4,29.47,SE,131,4.5,5.4,21,0.00,,---,0.00,VWS V14.01,2013-04-18 09:51:00,
2013-04-18 02:57:00,41.7,4.7,29.47,SE,133,3.6,4.0,21,0.00,,---,0.00,VWS V14.01,2013-04-18 09:57:00,
2013-04-18 03:02:00,42.3,4.1,29.47,SSE,157,5.4,5.4,20,0.00,,---,0.00,VWS V14.01,2013-04-18 10:02:00,
2013-04-18 03:07:00,43.9,5.4,29.47,SE,141,4.9,4.9,20,0.00,,---,0.00,VWS V14.01,2013-04-18 10:07:00,
2013-04-18 03:12:00,43.2,4.8,29.47,ESE,103,2.7,3.6,20,0.00,,---,0.00,VWS V14.01,2013-04-18 10:12:00,
2013-04-18 03:17:00,43.0,4.7,29.47,East,83,2.7,4.0,20,0.00,,---,0.00,VWS V14.01,2013-04-18 10:17:00,
2013-04-18 03:22:00,41.5,4.5,29.47,NNE,29,0.0,5.4,21,0.00,,---,0.00,VWS V14.01,2013-04-18 10:22:00,
2013-04-18 03:27:00,39.9,3.2,29.47,South,176,0.0,0.0,21,0.00,,---,0.00,VWS V14.01,2013-04-18 10:27:00,
2013-04-18 03:32:00,41.2,4.2,29.47,SSW,210,0.0,4.9,21,0.00,,---,0.00,VWS V14.01,2013-04-18 10:32:00,
2013-04-18 03:37:00,39.6,2.9,29.47,North,3,4.5,4.5,21,0.00,,---,0.00,VWS V14.01,2013-04-18 10:37:00,
2013-04-18 03:42:00,40.8,3.9,29.47,NNE,30,4.5,4.9,21,0.00,,---,0.00,VWS V14.01,2013-04-18 10:42:00,
2013-04-18 03:47:00,40.8,3.9,29.47,NNE,28,0.0,0.0,21,0.00,,---,0.00,VWS V14.01,2013-04-18 10:47:00,
2013-04-18 03:52:00,40.3,3.5,29.47,NNE,27,0.0,0.0,21,0.00,,---,0.00,VWS V14.01,2013-04-18 10:52:00,
2013-04-18 03:57:00,39.4,2.7,29.47,NNE,27,0.0,0.0,21,0.00,,---,0.00,VWS V14.01,2013-04-18 10:57:00,
2013-04-18 04:02:00,39.0,2.4,29.47,NNE,27,0.0,0.0,21,0.00,,---,0.00,VWS V14.01,2013-04-18 11:02:00,
2013-04-18 04:07:00,38.7,2.1,29.47,NNE,27,0.0,0.0,21,0.00,,---,0.00,VWS V14.01,2013-04-18 11:07:00,
2013-04-18 04:12:00,38.5,2.0,29.47,NNE,27,0.0,0.0,21,0.00,,---,0.00,VWS V14.01,2013-04-18 11:12:00,
2013-04-18 04:17:00,39.4,2.7,29.47,NNE,28,0.0,0.0,21,0.00,,---,0.00,VWS V14.01,2013-04-18 11:17:00,
2013-04-18 04:22:00,40.6,3.8,29.47,NNE,28,0.0,0.0,21,0.00,,---,0.00,VWS V14.01,2013-04-18 11:22:00,
2013-04-18 04:27:00,40.1,3.3,29.47,NNE,28,0.0,0.0,21,0.00,,---,0.00,VWS V14.01,2013-04-18 11:27:00,
2013-04-18 04:32:00,40.3,3.5,29.47,East,84,4.0,4.0,21,0.00,,---,0.00,VWS V14.01,2013-04-18 11:32:00,
2013-04-18 04:37:00,40.3,3.5,29.47,SE,124,3.6,3.6,21,0.00,,---,0.00,VWS V14.01,2013-04-18 11:37:00,
2013-04-18 04:42:00,40.1,3.3,29.47,East,101,0.0,2.7,21,0.00,,---,0.00,VWS V14.01,2013-04-18 11:42:00,
2013-04-18 04:47:00,40.5,3.6,29.47,ENE,63,0.0,3.1,21,0.00,,---,0.00,VWS V14.01,2013-04-18 11:47:00,
2013-04-18 04:52:00,40.1,3.3,29.47,North,351,3.6,4.0,21,0.00,,---,0.00,VWS V14.01,2013-04-18 11:52:00,
2013-04-18 04:57:00,39.9,3.2,29.47,South,188,5.8,5.8,21,0.00,,---,0.00,VWS V14.01,2013-04-18 11:57:00,
2013-04-18 05:02:00,39.9,3.2,29.47,South,185,4.9,5.4,21,0.00,,---,0.00,VWS V14.01,2013-04-18 12:02:00,
2013-04-18 05:07:00,40.6,3.8,29.47,NW,317,0.0,0.0,21,0.00,,---,0.00,VWS V14.01,2013-04-18 12:07:00,
2013-04-18 05:12:00,39.9,3.2,29.47,NNE,21,0.0,0.0,21,0.00,,---,0.00,VWS V14.01,2013-04-18 12:12:00,
2013-04-18 05:17:00,39.4,2.7,29.47,NNE,21,0.0,0.0,21,0.00,,---,0.00,VWS V14.01,2013-04-18 12:17:00,
2013-04-18 05:22:00,39.2,2.6,29.47,NNW,337,2.7,4.0,21,0.00,,---,0.00,VWS V14.01,2013-04-18 12:22:00,
2013-04-18 05:28:00,38.5,2.0,29.47,NNW,337,0.0,0.0,21,0.00,,---,0.00,VWS V14.01,2013-04-18 12:28:00,
2013-04-18 05:33:00,38.1,1.6,29.47,NNE,31,0.0,2.7,21,0.00,,---,0.00,VWS V14.01,2013-04-18 12:33:00,
2013-04-18 05:38:00,38.1,1.6,29.47,NNE,30,0.0,0.0,21,0.00,,---,0.00,VWS V14.01,2013-04-18 12:38:00,
2013-04-18 05:43:00,38.7,2.1,29.47,NE,48,0.0,0.0,21,0.00,,---,0.00,VWS V14.01,2013-04-18 12:43:00,
2013-04-18 05:48:00,38.8,2.3,29.47,NE,47,0.0,0.0,21,0.00,,---,0.00,VWS V14.01,2013-04-18 12:48:00,
2013-04-18 05:53:00,37.9,1.5,29.47,NE,47,0.0,0.0,21,0.00,,---,0.00,VWS V14.01,2013-04-18 12:53:00,
2013-04-18 05:58:00,37.4,1.0,29.47,NE,47,0.0,0.0,21,0.00,,---,0.00,VWS V14.01,2013-04-18 12:58:00,
2013-04-18 06:03:00,37.6,1.2,29.47,NE,47,0.0,0.0,21,0.00,,---,0.00,VWS V14.01,2013-04-18 13:03:00,
2013-04-18 06:08:00,37.8,1.4,29.47,NE,47,0.0,0.0,21,0.00,,---,0.00,VWS V14.01,2013-04-18 13:08:00,
2013-04-18 06:13:00,38.1,1.6,29.47,NE,47,0.0,0.0,21,0.00,,---,0.00,VWS V14.01,2013-04-18 13:13:00,
2013-04-18 06:18:00,37.8,1.4,29.50,NE,35,0.0,0.0,21,0.00,,---,0.00,VWS V14.01,2013-04-18 13:18:00,
2013-04-18 06:23:00,36.9,0.6,29.50,NE,45,3.6,3.6,21,0.00,,---,0.00,VWS V14.01,2013-04-18 13:23:00,
2013-04-18 06:28:00,38.8,4.2,29.50,East,96,2.7,3.6,23,0.00,,---,0.00,VWS V14.01,2013-04-18 13:28:00,
2013-04-18 06:33:00,41.9,4.8,29.50,ESE,105,0.0,4.0,21,0.00,,---,0.00,VWS V14.01,2013-04-18 13:33:00,
2013-04-18 06:38:00,41.2,4.2,29.50,ENE,70,0.0,0.0,21,0.00,,---,0.00,VWS V14.01,2013-04-18 13:38:00,
2013-04-18 06:43:00,40.1,3.3,29.50,NNW,336,0.0,0.0,21,0.00,,---,0.00,VWS V14.01,2013-04-18 13:43:00,
2013-04-18 06:48:00,39.4,2.7,29.50,NNW,336,0.0,0.0,21,0.00,,---,0.00,VWS V14.01,2013-04-18 13:48:00,
2013-04-18 06:53:00,39.4,2.7,29.50,NNW,333,0.0,0.0,21,0.00,,---,0.00,VWS V14.01,2013-04-18 13:53:00,
2013-04-18 06:58:00,41.5,4.5,29.50,NW,324,0.0,0.0,21,0.00,,---,0.00,VWS V14.01,2013-04-18 13:58:00,
2013-04-18 07:03:00,45.3,6.6,29.50,NW,324,0.0,0.0,20,0.00,,---,0.00,VWS V14.01,2013-04-18 14:03:00,
2013-04-18 07:08:00,47.1,7.0,29.50,ENE,78,3.6,4.5,19,0.00,,---,0.00,VWS V14.01,2013-04-18 14:08:00,
2013-04-18 07:13:00,45.0,6.3,29.50,SSE,158,4.0,4.0,20,0.00,,---,0.00,VWS V14.01,2013-04-18 14:13:00,
2013-04-18 07:18:00,45.3,6.6,29.50,SSE,157,0.0,0.0,20,0.00,,---,0.00,VWS V14.01,2013-04-18 14:18:00,
2013-04-18 07:23:00,46.2,6.2,29.50,SSE,160,0.0,4.0,19,0.00,,---,0.00,VWS V14.01,2013-04-18 14:23:00,
2013-04-18 07:28:00,46.6,6.5,29.50,WNW,292,0.0,0.0,19,0.00,,---,0.00,VWS V14.01,2013-04-18 14:28:00,
2013-04-18 07:33:00,46.8,6.7,29.50,WNW,292,0.0,0.0,19,0.00,,---,0.00,VWS V14.01,2013-04-18 14:33:00,
2013-04-18 07:38:00,46.9,6.8,29.50,WNW,294,0.0,0.0,19,0.00,,---,0.00,VWS V14.01,2013-04-18 14:38:00,
2013-04-18 07:43:00,47.8,7.6,29.50,WNW,294,0.0,0.0,19,0.00,,---,0.00,VWS V14.01,2013-04-18 14:43:00,
2013-04-18 07:48:00,48.7,8.3,29.50,WNW,294,0.0,0.0,19,0.00,,---,0.00,VWS V14.01,2013-04-18 14:48:00,
2013-04-18 07:53:00,49.3,8.8,29.50,WNW,294,0.0,0.0,19,0.00,,---,0.00,VWS V14.01,2013-04-18 14:53:00,
2013-04-18 07:58:00,50.4,9.7,29.50,NNW,331,0.0,4.0,19,0.00,,---,0.00,VWS V14.01,2013-04-18 14:58:00,
2013-04-18 08:03:00,51.3,9.2,29.50,NNW,334,0.0,0.0,18,0.00,,---,0.00,VWS V14.01,2013-04-18 15:03:00,
2013-04-18 08:08:00,52.2,10.0,29.50,NNW,339,0.0,0.0,18,0.00,,---,0.00,VWS V14.01,2013-04-18 15:08:00,
2013-04-18 08:13:00,53.2,10.9,29.50,NNW,339,0.0,0.0,18,0.00,,---,0.00,VWS V14.01,2013-04-18 15:13:00,
2013-04-18 08:18:00,54.7,10.7,29.50,NE,53,0.0,0.0,17,0.00,,---,0.00,VWS V14.01,2013-04-18 15:18:00,
2013-04-18 08:23:00,56.3,12.1,29.50,NNW,333,0.0,0.0,17,0.00,,---,0.00,VWS V14.01,2013-04-18 15:23:00,
2013-04-18 08:28:00,57.9,13.4,29.50,NNW,333,0.0,0.0,17,0.00,,---,0.00,VWS V14.01,2013-04-18 15:28:00,
2013-04-18 08:33:00,59.2,14.4,29.50,WNW,284,0.0,3.6,17,0.00,,---,0.00,VWS V14.01,2013-04-18 15:33:00,
2013-04-18 08:38:00,60.6,14.2,29.50,WSW,256,0.0,5.4,16,0.00,,---,0.00,VWS V14.01,2013-04-18 15:38:00,
2013-04-18 08:43:00,61.7,15.1,29.50,NNE,14,4.9,11.2,16,0.00,,---,0.00,VWS V14.01,2013-04-18 15:43:00,
2013-04-18 08:48:00,62.2,15.5,29.50,NE,54,8.7,10.1,16,0.00,,---,0.00,VWS V14.01,2013-04-18 15:48:00,
2013-04-18 08:53:00,62.4,15.7,29.50,North,356,8.7,10.1,16,0.00,,---,0.00,VWS V14.01,2013-04-18 15:53:00,
2013-04-18 08:58:00,63.0,16.1,29.50,North,356,12.1,12.1,16,0.00,,---,0.00,VWS V14.01,2013-04-18 15:58:00,
2013-04-18 09:03:00,62.6,15.8,29.50,NE,45,6.3,12.1,16,0.00,,---,0.00,VWS V14.01,2013-04-18 16:03:00,
2013-04-18 09:08:00,63.1,16.2,29.50,NNE,23,11.2,11.2,16,0.00,,---,0.00,VWS V14.01,2013-04-18 16:08:00,
2013-04-18 09:13:00,63.0,16.1,29.50,North,7,10.5,18.1,16,0.00,,---,0.00,VWS V14.01,2013-04-18 16:13:00,
2013-04-18 09:18:00,62.4,15.7,29.50,North,11,11.2,15.4,16,0.00,,---,0.00,VWS V14.01,2013-04-18 16:18:00,
2013-04-18 09:23:00,63.3,16.4,29.50,NNE,16,11.6,15.4,16,0.00,,---,0.00,VWS V14.01,2013-04-18 16:23:00,
2013-04-18 09:28:00,63.7,15.2,29.50,North,351,12.5,14.8,15,0.00,,---,0.00,VWS V14.01,2013-04-18 16:28:00,
2013-04-18 09:33:00,63.1,16.2,29.47,North,356,13.4,13.9,16,0.00,,---,0.00,VWS V14.01,2013-04-18 16:33:00,
2013-04-18 09:38:00,63.5,16.5,29.47,NNE,13,11.2,13.4,16,0.00,,---,0.00,VWS V14.01,2013-04-18 16:38:00,
2013-04-18 09:43:00,63.5,15.1,29.47,North,10,9.6,14.8,15,0.00,,---,0.00,VWS V14.01,2013-04-18 16:43:00,
2013-04-18 09:48:00,63.1,16.2,29.50,NNE,15,10.5,12.1,16,0.00,,---,0.00,VWS V14.01,2013-04-18 16:48:00,
2013-04-18 09:53:00,63.9,15.3,29.50,NNE,17,8.3,11.0,15,0.00,,---,0.00,VWS V14.01,2013-04-18 16:53:00,
2013-04-18 09:58:00,64.2,15.6,29.50,North,11,11.2,11.2,15,0.00,,---,0.00,VWS V14.01,2013-04-18 16:58:00,
2013-04-18 10:03:00,63.7,15.2,29.50,North,356,11.0,13.9,15,0.00,,---,0.00,VWS V14.01,2013-04-18 17:03:00,
2013-04-18 10:08:00,64.4,15.8,29.50,NNE,17,9.6,13.0,15,0.00,,---,0.00,VWS V14.01,2013-04-18 17:08:00,
2013-04-18 10:13:00,64.6,15.9,29.50,NE,43,10.5,11.6,15,0.00,,---,0.00,VWS V14.01,2013-04-18 17:13:00,
2013-04-18 10:18:00,65.5,16.6,29.50,NE,36,13.9,14.3,15,0.00,,---,0.00,VWS V14.01,2013-04-18 17:18:00,
2013-04-18 10:23:00,65.7,16.8,29.50,NNE,13,10.5,13.4,15,0.00,,---,0.00,VWS V14.01,2013-04-18 17:23:00,
2013-04-18 10:28:00,65.5,16.6,29.50,NNW,345,10.5,13.4,15,0.00,,---,0.00,VWS V14.01,2013-04-18 17:28:00,
2013-04-18 10:33:00,65.7,16.8,29.50,NNE,33,13.9,14.8,15,0.00,,---,0.00,VWS V14.01,2013-04-18 17:33:00,
2013-04-18 10:38:00,66.0,17.1,29.50,NE,37,12.1,12.5,15,0.00,,---,0.00,VWS V14.01,2013-04-18 17:38:00,
2013-04-18 10:43:00,65.8,16.9,29.50,ENE,61,7.8,10.1,15,0.00,,---,0.00,VWS V14.01,2013-04-18 17:43:00,
2013-04-18 10:49:00,66.7,17.6,29.50,NNE,15,8.3,13.9,15,0.00,,---,0.00,VWS V14.01,2013-04-18 17:49:00,
2013-04-18 10:54:00,66.2,17.2,29.50,NNE,15,8.7,13.4,15,0.00,,---,0.00,VWS V14.01,2013-04-18 17:54:00,
2013-04-18 10:59:00,66.9,17.8,29.50,North,4,11.6,13.4,15,0.00,,---,0.00,VWS V14.01,2013-04-18 17:59:00,
2013-04-18 11:04:00,67.1,17.9,29.50,NNE,19,10.5,10.5,15,0.00,,---,0.00,VWS V14.01,2013-04-18 18:04:00,
2013-04-18 11:09:00,66.7,17.6,29.50,NNE,31,11.2,13.4,15,0.00,,---,0.00,VWS V14.01,2013-04-18 18:09:00,
2013-04-18 11:14:00,67.6,18.4,29.50,NW,321,8.7,14.8,15,0.00,,---,0.00,VWS V14.01,2013-04-18 18:14:00,
2013-04-18 11:19:00,66.4,17.4,29.50,NNW,345,12.1,15.4,15,0.00,,---,0.00,VWS V14.01,2013-04-18 18:19:00,
2013-04-18 11:24:00,67.3,18.1,29.50,North,351,7.8,11.0,15,0.00,,---,0.00,VWS V14.01,2013-04-18 18:24:00,
2013-04-18 11:29:00,68.5,19.1,29.50,North,351,9.6,11.2,15,0.00,,---,0.00,VWS V14.01,2013-04-18 18:29:00,
2013-04-18 11:34:00,68.2,18.8,29.47,North,351,6.7,13.0,15,0.00,,---,0.00,VWS V14.01,2013-04-18 18:34:00,
2013-04-18 11:39:00,67.6,18.4,29.47,NNW,335,8.7,12.5,15,0.00,,---,0.00,VWS V14.01,2013-04-18 18:39:00,
2013-04-18 11:44:00,68.5,19.1,29.47,North,5,9.6,11.0,15,0.00,,---,0.00,VWS V14.01,2013-04-18 18:44:00,
2013-04-18 11:49:00,68.5,19.1,29.47,NNE,23,14.8,15.4,15,0.00,,---,0.00,VWS V14.01,2013-04-18 18:49:00,
2013-04-18 11:54:00,68.5,19.1,29.47,NNE,19,8.3,12.1,15,0.00,,---,0.00,VWS V14.01,2013-04-18 18:54:00,
2013-04-18 11:59:00,68.5,19.1,29.47,NNE,19,12.5,12.5,15,0.00,,---,0.00,VWS V14.01,2013-04-18 18:59:00,
2013-04-18 12:04:00,68.4,19.0,29.47,NNE,30,11.6,14.8,15,0.00,,---,0.00,VWS V14.01,2013-04-18 19:04:00,
2013-04-18 12:09:00,69.1,17.9,29.47,North,356,10.1,11.0,14,0.00,,---,0.00,VWS V14.01,2013-04-18 19:09:00,
2013-04-18 12:14:00,69.3,18.1,29.47,North,3,9.6,10.1,14,0.00,,---,0.00,VWS V14.01,2013-04-18 19:14:00,
2013-04-18 12:19:00,70.0,18.6,29.47,NE,52,12.1,12.1,14,0.00,,---,0.00,VWS V14.01,2013-04-18 19:19:00,
2013-04-18 12:24:00,70.2,18.8,29.47,NW,325,7.8,8.7,14,0.00,,---,0.00,VWS V14.01,2013-04-18 19:24:00,
2013-04-18 12:29:00,70.0,18.6,29.47,NNW,335,11.2,13.9,14,0.00,,---,0.00,VWS V14.01,2013-04-18 19:29:00,
2013-04-18 12:34:00,70.9,19.4,29.47,North,10,6.3,7.4,14,0.00,,---,0.00,VWS V14.01,2013-04-18 19:34:00,
2013-04-18 12:39:00,71.8,20.1,29.47,NNE,19,9.6,10.1,14,0.00,,---,0.00,VWS V14.01,2013-04-18 19:39:00,
2013-04-18 12:44:00,71.4,19.8,29.47,NNW,335,3.6,10.1,14,0.00,,---,0.00,VWS V14.01,2013-04-18 19:44:00,
2013-04-18 12:49:00,73.2,19.5,29.47,WNW,290,5.4,6.7,13,0.00,,---,0.00,VWS V14.01,2013-04-18 19:49:00,
2013-04-18 12:54:00,72.1,20.4,29.47,NNE,22,7.8,8.3,14,0.00,,---,0.00,VWS V14.01,2013-04-18 19:54:00,
2013-04-18 12:59:00,71.8,20.1,29.47,NW,322,4.5,9.6,14,0.00,,---,0.00,VWS V14.01,2013-04-18 19:59:00,
2013-04-18 13:04:00,71.1,19.5,29.47,NNW,339,11.0,13.9,14,0.00,,---,0.00,VWS V14.01,2013-04-18 20:04:00,
2013-04-18 13:09:00,71.2,19.6,29.47,NNW,334,4.0,9.6,14,0.00,,---,0.00,VWS V14.01,2013-04-18 20:09:00,
2013-04-18 13:14:00,71.1,19.5,29.47,North,356,12.1,15.2,14,0.00,,---,0.00,VWS V14.01,2013-04-18 20:14:00,
2013-04-18 13:19:00,72.0,20.2,29.47,North,356,4.9,5.8,14,0.00,,---,0.00,VWS V14.01,2013-04-18 20:19:00,
2013-04-18 13:24:00,72.0,20.2,29.47,NNE,33,10.1,10.5,14,0.00,,---,0.00,VWS V14.01,2013-04-18 20:24:00,
2013-04-18 13:29:00,70.9,19.4,29.47,North,351,14.8,14.8,14,0.00,,---,0.00,VWS V14.01,2013-04-18 20:29:00,
2013-04-18 13:34:00,72.9,19.2,29.44,NNW,341,4.0,8.3,13,0.00,,---,0.00,VWS V14.01,2013-04-18 20:34:00,
2013-04-18 13:39:00,71.6,19.9,29.44,NNE,31,8.7,11.2,14,0.00,,---,0.00,VWS V14.01,2013-04-18 20:39:00,
2013-04-18 13:44:00,72.5,20.6,29.44,NNW,339,9.2,13.9,14,0.00,,---,0.00,VWS V14.01,2013-04-18 20:44:00,
2013-04-18 13:49:00,72.1,20.4,29.44,NNW,328,10.5,10.5,14,0.00,,---,0.00,VWS V14.01,2013-04-18 20:49:00,
2013-04-18 13:54:00,72.5,18.9,29.44,North,1,6.9,11.0,13,0.00,,---,0.00,VWS V14.01,2013-04-18 20:54:00,
2013-04-18 13:59:00,72.1,20.4,29.44,NNW,341,10.1,14.3,14,0.00,,---,0.00,VWS V14.01,2013-04-18 20:59:00,
2013-04-18 14:04:00,72.1,20.4,29.44,North,0,11.0,13.9,14,0.00,,---,0.00,VWS V14.01,2013-04-18 21:04:00,
2013-04-18 14:09:00,72.5,18.9,29.44,NNE,16,7.8,10.5,13,0.00,,---,0.00,VWS V14.01,2013-04-18 21:09:00,
2013-04-18 14:14:00,72.9,19.2,29.44,North,10,9.6,14.3,13,0.00,,---,0.00,VWS V14.01,2013-04-18 21:14:00,
2013-04-18 14:19:00,73.0,19.3,29.44,NNE,21,11.6,13.9,13,0.00,,---,0.00,VWS V14.01,2013-04-18 21:19:00,
2013-04-18 14:24:00,72.9,19.2,29.44,NNW,341,10.5,17.7,13,0.00,,---,0.00,VWS V14.01,2013-04-18 21:24:00,
2013-04-18 14:29:00,72.9,19.2,29.44,NNW,340,7.4,12.1,13,0.00,,---,0.00,VWS V14.01,2013-04-18 21:29:00,
2013-04-18 14:34:00,73.2,19.5,29.44,NNW,339,9.6,11.6,13,0.00,,---,0.00,VWS V14.01,2013-04-18 21:34:00,
2013-04-18 14:40:00,72.1,20.4,29.44,NNW,331,9.2,13.4,14,0.00,,---,0.00,VWS V14.01,2013-04-18 21:40:00,
2013-04-18 14:45:00,73.2,19.5,29.44,NNW,340,16.3,16.3,13,0.00,,---,0.00,VWS V14.01,2013-04-18 21:45:00,
2013-04-18 14:51:00,72.9,19.2,29.44,NNE,23,11.2,11.2,13,0.00,,---,0.00,VWS V14.01,2013-04-18 21:51:00,
2013-04-18 14:56:00,73.4,19.6,29.44,NNW,328,12.1,15.2,13,0.00,,---,0.00,VWS V14.01,2013-04-18 21:56:00,
2013-04-18 15:01:00,74.3,20.3,29.44,NW,322,6.7,10.1,13,0.00,,---,0.00,VWS V14.01,2013-04-18 22:01:00,
2013-04-18 15:06:00,73.9,20.0,29.44,NNE,24,7.4,9.6,13,0.00,,---,0.00,VWS V14.01,2013-04-18 22:06:00,
2013-04-18 15:12:00,73.6,19.8,29.44,NNW,335,10.1,13.4,13,0.00,,---,0.00,VWS V14.01,2013-04-18 22:12:00,
2013-04-18 15:17:00,73.8,19.9,29.44,NE,38,9.6,9.6,13,0.00,,---,0.00,VWS V14.01,2013-04-18 22:17:00,
2013-04-18 15:22:00,73.8,19.9,29.44,North,351,10.1,10.5,13,0.00,,---,0.00,VWS V14.01,2013-04-18 22:22:00,
2013-04-18 15:27:00,73.4,19.6,29.44,NNW,330,6.7,8.7,13,0.00,,---,0.00,VWS V14.01,2013-04-18 22:27:00,
2013-04-18 15:32:00,73.8,19.9,29.44,North,351,8.3,11.2,13,0.00,,---,0.00,VWS V14.01,2013-04-18 22:32:00,
2013-04-18 15:37:00,73.8,19.9,29.41,North,351,12.5,16.8,13,0.00,,---,0.00,VWS V14.01,2013-04-18 22:37:00,
2013-04-18 15:42:00,73.6,19.8,29.41,NNW,328,5.8,12.5,13,0.00,,---,0.00,VWS V14.01,2013-04-18 22:42:00,
2013-04-18 15:47:00,73.9,20.0,29.41,North,351,6.7,10.1,13,0.00,,---,0.00,VWS V14.01,2013-04-18 22:47:00,
2013-04-18 15:52:00,73.6,19.8,29.41,NNW,327,5.4,6.7,13,0.00,,---,0.00,VWS V14.01,2013-04-18 22:52:00,
2013-04-18 15:57:00,73.9,20.0,29.41,North,9,7.4,9.2,13,0.00,,---,0.00,VWS V14.01,2013-04-18 22:57:00,
2013-04-18 16:02:00,74.1,20.2,29.41,North,9,7.8,11.2,13,0.00,,---,0.00,VWS V14.01,2013-04-18 23:02:00,
2013-04-18 16:07:00,75.0,20.9,29.41,North,351,9.6,9.6,13,0.00,,---,0.00,VWS V14.01,2013-04-18 23:07:00,
2013-04-18 16:12:00,74.5,20.5,29.41,North,9,10.5,10.5,13,0.00,,---,0.00,VWS V14.01,2013-04-18 23:12:00,
2013-04-18 16:17:00,74.7,20.6,29.41,NNE,12,5.4,5.8,13,0.00,,---,0.00,VWS V14.01,2013-04-18 23:17:00,
2013-04-18 16:22:00,74.7,20.6,29.41,North,351,14.3,14.3,13,0.00,,---,0.00,VWS V14.01,2013-04-18 23:22:00,
2013-04-18 16:27:00,73.8,19.9,29.41,NNW,340,11.2,15.4,13,0.00,,---,0.00,VWS V14.01,2013-04-18 23:27:00,
2013-04-18 16:32:00,74.5,20.5,29.41,NW,319,7.8,12.1,13,0.00,,---,0.00,VWS V14.01,2013-04-18 23:32:00,
2013-04-18 16:37:00,73.8,19.9,29.41,NNW,337,11.2,13.9,13,0.00,,---,0.00,VWS V14.01,2013-04-18 23:37:00,
2013-04-18 16:42:00,73.9,20.0,29.41,North,356,7.4,12.1,13,0.00,,---,0.00,VWS V14.01,2013-04-18 23:42:00,
2013-04-18 16:47:00,74.3,20.3,29.38,NNW,346,3.1,5.4,13,0.00,,---,0.00,VWS V14.01,2013-04-18 23:47:00,
2013-04-18 16:52:00,75.0,20.9,29.38,West,267,0.0,4.9,13,0.00,,---,0.00,VWS V14.01,2013-04-18 23:52:00,
2013-04-18 16:57:00,75.2,21.0,29.38,NNW,335,9.6,9.6,13,0.00,,---,0.00,VWS V14.01,2013-04-18 23:57:00,
2013-04-18 17:02:00,74.7,20.6,29.38,NNE,13,8.3,11.0,13,0.00,,---,0.00,VWS V14.01,2013-04-19 00:02:00,
2013-04-18 17:07:00,74.1,20.2,29.38,NNW,345,7.4,8.3,13,0.00,,---,0.00,VWS V14.01,2013-04-19 00:07:00,
2013-04-18 17:12:00,74.1,20.2,29.38,NNW,346,6.9,8.3,13,0.00,,---,0.00,VWS V14.01,2013-04-19 00:12:00,
2013-04-18 17:17:00,73.8,19.9,29.38,NNW,345,4.0,6.7,13,0.00,,---,0.00,VWS V14.01,2013-04-19 00:17:00,
2013-04-18 17:22:00,74.3,20.3,29.38,NNE,14,7.4,9.6,13,0.00,,---,0.00,VWS V14.01,2013-04-19 00:22:00,
2013-04-18 17:27:00,74.1,20.2,29.38,North,356,6.9,7.8,13,0.00,,---,0.00,VWS V14.01,2013-04-19 00:27:00,
2013-04-18 17:32:00,74.1,20.2,29.38,NW,305,4.0,7.4,13,0.00,,---,0.00,VWS V14.01,2013-04-19 00:32:00,
2013-04-18 17:37:00,74.1,20.2,29.38,NW,324,9.2,9.2,13,0.00,,---,0.00,VWS V14.01,2013-04-19 00:37:00,
2013-04-18 17:42:00,73.8,19.9,29.38,NNE,25,6.9,7.4,13,0.00,,---,0.00,VWS V14.01,2013-04-19 00:42:00,
2013-04-18 17:47:00,73.8,19.9,29.38,NNE,33,6.7,9.6,13,0.00,,---,0.00,VWS V14.01,2013-04-19 00:47:00,
2013-04-18 17:53:00,73.8,19.9,29.38,North,351,4.5,6.7,13,0.00,,---,0.00,VWS V14.01,2013-04-19 00:53:00,
2013-04-18 17:58:00,73.4,19.6,29.38,NNE,22,4.9,5.8,13,0.00,,---,0.00,VWS V14.01,2013-04-19 00:58:00,
2013-04-18 18:03:00,73.4,19.6,29.38,NNW,335,9.2,9.2,13,0.00,,---,0.00,VWS V14.01,2013-04-19 01:03:00,
2013-04-18 18:08:00,73.2,19.5,29.38,NNE,12,8.7,10.5,13,0.00,,---,0.00,VWS V14.01,2013-04-19 01:08:00,
2013-04-18 18:13:00,73.2,19.5,29.38,NW,316,5.8,8.7,13,0.00,,---,0.00,VWS V14.01,2013-04-19 01:13:00,
2013-04-18 18:18:00,73.2,19.5,29.38,NNE,15,6.9,7.8,13,0.00,,---,0.00,VWS V14.01,2013-04-19 01:18:00,
2013-04-18 18:23:00,72.9,19.2,29.38,North,356,8.7,11.0,13,0.00,,---,0.00,VWS V14.01,2013-04-19 01:23:00,
2013-04-18 18:28:00,72.7,19.0,29.38,NNE,28,6.3,6.3,13,0.00,,---,0.00,VWS V14.01,2013-04-19 01:28:00,
2013-04-18 18:33:00,72.7,19.0,29.38,North,351,5.8,6.9,13,0.00,,---,0.00,VWS V14.01,2013-04-19 01:33:00,
2013-04-18 18:38:00,72.5,18.9,29.38,NNW,333,6.9,7.8,13,0.00,,---,0.00,VWS V14.01,2013-04-19 01:38:00,
2013-04-18 18:43:00,72.3,20.5,29.38,West,277,8.7,10.5,14,0.00,,---,0.00,VWS V14.01,2013-04-19 01:43:00,
2013-04-18 18:48:00,71.6,19.9,29.38,West,269,11.0,11.0,14,0.00,,---,0.00,VWS V14.01,2013-04-19 01:48:00,
2013-04-18 18:53:00,70.7,19.2,29.38,West,271,6.9,7.4,14,0.00,,---,0.00,VWS V14.01,2013-04-19 01:53:00,
2013-04-18 18:58:00,70.0,18.6,29.38,West,269,7.8,10.1,14,0.00,,---,0.00,VWS V14.01,2013-04-19 01:58:00,
2013-04-18 19:03:00,69.4,18.2,29.38,West,264,6.9,7.8,14,0.00,,---,0.00,VWS V14.01,2013-04-19 02:03:00,
2013-04-18 19:08:00,68.9,17.8,29.38,NW,315,3.6,5.8,14,0.00,,---,0.00,VWS V14.01,2013-04-19 02:08:00,
2013-04-18 19:13:00,68.9,19.4,29.38,WNW,296,6.3,6.7,15,0.00,,---,0.00,VWS V14.01,2013-04-19 02:13:00,
2013-04-18 19:18:00,68.9,19.4,29.38,WNW,296,6.3,6.3,15,0.00,,---,0.00,VWS V14.01,2013-04-19 02:18:00,
2013-04-18 19:23:00,68.9,19.4,29.38,WNW,296,6.3,6.3,15,0.00,,---,0.00,VWS V14.01,2013-04-19 02:23:00,
2013-04-18 19:28:00,68.9,19.4,29.38,WNW,296,6.3,6.3,15,0.00,,---,0.00,VWS V14.01,2013-04-19 02:28:00,
2013-04-18 19:33:00,68.7,19.2,29.38,West,279,5.8,6.3,15,0.00,,---,0.00,VWS V14.01,2013-04-19 02:33:00,
2013-04-18 19:38:00,68.7,19.2,29.38,West,279,5.8,5.8,15,0.00,,---,0.00,VWS V14.01,2013-04-19 02:38:00,
2013-04-18 19:43:00,65.3,16.5,29.41,West,280,2.7,2.7,15,0.00,,---,0.00,VWS V14.01,2013-04-19 02:43:00,
2013-04-18 19:48:00,63.5,15.1,29.41,West,280,0.0,0.0,15,0.00,,---,0.00,VWS V14.01,2013-04-19 02:48:00,
2013-04-18 19:53:00,63.3,16.4,29.41,West,280,0.0,0.0,16,0.00,,---,0.00,VWS V14.01,2013-04-19 02:53:00,
2013-04-18 19:58:00,63.1,16.2,29.41,West,280,0.0,0.0,16,0.00,,---,0.00,VWS V14.01,2013-04-19 02:58:00,
2013-04-18 20:03:00,62.1,15.4,29.41,SW,234,4.9,5.4,16,0.00,,---,0.00,VWS V14.01,2013-04-19 03:03:00,
2013-04-18 20:08:00,62.1,15.4,29.41,SSW,211,4.5,6.9,16,0.00,,---,0.00,VWS V14.01,2013-04-19 03:08:00,
2013-04-18 20:13:00,62.1,15.4,29.41,SSW,213,5.4,5.4,16,0.00,,---,0.00,VWS V14.01,2013-04-19 03:13:00,
2013-04-18 20:18:00,62.1,15.4,29.41,SSW,213,5.4,5.4,16,0.00,,---,0.00,VWS V14.01,2013-04-19 03:18:00,
2013-04-18 20:23:00,62.1,15.4,29.41,SSW,213,5.4,5.4,16,0.00,,---,0.00,VWS V14.01,2013-04-19 03:23:00,
2013-04-18 20:28:00,62.1,15.4,29.41,SSW,213,5.4,5.4,16,0.00,,---,0.00,VWS V14.01,2013-04-19 03:28:00,
2013-04-18 20:33:00,62.1,15.4,29.41,SSW,213,5.4,5.4,16,0.00,,---,0.00,VWS V14.01,2013-04-19 03:33:00,
2013-04-18 20:38:00,62.1,15.4,29.41,SSW,213,5.4,5.4,16,0.00,,---,0.00,VWS V14.01,2013-04-19 03:38:00,
2013-04-18 20:43:00,62.1,15.4,29.41,SSW,213,5.4,5.4,16,0.00,,---,0.00,VWS V14.01,2013-04-19 03:43:00,
2013-04-18 20:48:00,62.1,15.4,29.41,SSW,213,5.4,5.4,16,0.00,,---,0.00,VWS V14.01,2013-04-19 03:48:00,
2013-04-18 20:53:00,62.1,15.4,29.41,SSW,213,5.4,5.4,16,0.00,,---,0.00,VWS V14.01,2013-04-19 03:53:00,
2013-04-18 20:58:00,58.8,14.1,29.44,South,175,0.0,5.4,17,0.00,,---,0.00,VWS V14.01,2013-04-19 03:58:00,
2013-04-18 21:01:00,58.1,13.5,29.44,SSE,168,3.6,4.0,17,0.00,,---,0.00,VWS V14.01,2013-04-19 04:01:00,
2013-04-18 21:02:00,58.1,13.5,29.44,SSE,165,3.6,4.5,17,0.00,,---,0.00,VWS V14.01,2013-04-19 04:02:00,
2013-04-18 21:04:00,57.9,13.4,29.44,SE,141,4.5,4.9,17,0.00,,---,0.00,VWS V14.01,2013-04-19 04:04:00,
2013-04-18 21:08:00,58.1,13.5,29.44,SE,128,3.6,4.9,17,0.00,,---,0.00,VWS V14.01,2013-04-19 04:08:00,
2013-04-18 21:13:00,58.1,13.5,29.44,SE,127,0.0,3.1,17,0.00,,---,0.00,VWS V14.01,2013-04-19 04:13:00,
2013-04-18 21:18:00,57.0,12.7,29.44,SE,127,0.0,0.0,17,0.00,,---,0.00,VWS V14.01,2013-04-19 04:18:00,
2013-04-18 21:23:00,57.7,13.2,29.44,SE,127,3.6,4.0,17,0.00,,---,0.00,VWS V14.01,2013-04-19 04:23:00,
2013-04-18 21:28:00,57.2,12.8,29.44,SE,127,3.6,4.5,17,0.00,,---,0.00,VWS V14.01,2013-04-19 04:28:00,
2013-04-18 21:34:00,54.9,10.9,29.44,SE,126,3.6,3.6,17,0.00,,---,0.00,VWS V14.01,2013-04-19 04:34:00,
2013-04-18 21:39:00,54.1,11.6,29.44,SE,126,3.6,3.6,18,0.00,,---,0.00,VWS V14.01,2013-04-19 04:39:00,
2013-04-18 21:44:00,53.6,11.1,29.44,East,97,3.1,3.6,18,0.00,,---,0.00,VWS V14.01,2013-04-19 04:44:00,
2013-04-18 21:49:00,53.1,10.7,29.44,East,97,0.0,0.0,18,0.00,,---,0.00,VWS V14.01,2013-04-19 04:49:00,
2013-04-18 21:54:00,53.6,11.1,29.44,East,98,4.5,4.5,18,0.00,,---,0.00,VWS V14.01,2013-04-19 04:54:00,
2013-04-18 21:59:00,55.2,11.2,29.44,East,98,4.0,4.5,17,0.00,,---,0.00,VWS V14.01,2013-04-19 04:59:00,
2013-04-18 22:04:00,54.5,10.6,29.44,East,100,3.6,4.0,17,0.00,,---,0.00,VWS V14.01,2013-04-19 05:04:00,
2013-04-18 22:09:00,54.7,10.7,29.44,East,100,3.6,3.6,17,0.00,,---,0.00,VWS V14.01,2013-04-19 05:09:00,
2013-04-18 22:14:00,53.8,11.3,29.44,East,100,0.0,0.0,18,0.00,,---,0.00,VWS V14.01,2013-04-19 05:14:00,
2013-04-18 22:19:00,52.7,10.4,29.44,East,100,0.0,0.0,18,0.00,,---,0.00,VWS V14.01,2013-04-19 05:19:00,
2013-04-18 22:24:00,52.5,10.2,29.44,East,100,0.0,0.0,18,0.00,,---,0.00,VWS V14.01,2013-04-19 05:24:00,
2013-04-18 22:29:00,51.6,9.5,29.44,East,100,0.0,0.0,18,0.00,,---,0.00,VWS V14.01,2013-04-19 05:29:00,
2013-04-18 22:34:00,51.3,9.2,29.47,East,100,0.0,0.0,18,0.00,,---,0.00,VWS V14.01,2013-04-19 05:34:00,
2013-04-18 22:39:00,51.6,9.5,29.47,East,100,0.0,0.0,18,0.00,,---,0.00,VWS V14.01,2013-04-19 05:39:00,
2013-04-18 22:44:00,51.6,9.5,29.47,East,100,0.0,0.0,18,0.00,,---,0.00,VWS V14.01,2013-04-19 05:44:00,
2013-04-18 22:49:00,52.3,10.1,29.47,East,100,4.0,4.0,18,0.00,,---,0.00,VWS V14.01,2013-04-19 05:49:00,
2013-04-18 22:54:00,52.9,10.6,29.47,East,100,3.6,3.6,18,0.00,,---,0.00,VWS V14.01,2013-04-19 05:54:00,
2013-04-18 22:59:00,52.3,10.1,29.47,East,100,3.1,4.0,18,0.00,,---,0.00,VWS V14.01,2013-04-19 05:59:00,
2013-04-18 23:04:00,52.0,9.8,29.47,East,100,0.0,0.0,18,0.00,,---,0.00,VWS V14.01,2013-04-19 06:04:00,
2013-04-18 23:09:00,51.1,9.1,29.47,East,100,0.0,0.0,18,0.00,,---,0.00,VWS V14.01,2013-04-19 06:09:00,
2013-04-18 23:14:00,50.2,9.5,29.47,East,100,0.0,0.0,19,0.00,,---,0.00,VWS V14.01,2013-04-19 06:14:00,
2013-04-18 23:19:00,50.0,9.4,29.44,East,100,0.0,0.0,19,0.00,,---,0.00,VWS V14.01,2013-04-19 06:19:00,
2013-04-18 23:24:00,49.8,9.2,29.44,East,100,0.0,0.0,19,0.00,,---,0.00,VWS V14.01,2013-04-19 06:24:00,
2013-04-18 23:29:00,50.0,9.4,29.44,East,100,0.0,0.0,19,0.00,,---,0.00,VWS V14.01,2013-04-19 06:29:00,
2013-04-18 23:34:00,50.2,9.5,29.47,East,100,0.0,0.0,19,0.00,,---,0.00,VWS V14.01,2013-04-19 06:34:00,
2013-04-18 23:39:00,49.8,9.2,29.47,East,100,0.0,0.0,19,0.00,,---,0.00,VWS V14.01,2013-04-19 06:39:00,
2013-04-18 23:44:00,50.2,9.5,29.47,East,100,0.0,0.0,19,0.00,,---,0.00,VWS V14.01,2013-04-19 06:44:00,
2013-04-18 23:49:00,50.0,11.6,29.44,East,100,0.0,0.0,21,0.00,,---,0.00,VWS V14.01,2013-04-19 06:49:00,
2013-04-18 23:54:00,49.3,11.0,29.44,East,100,0.0,0.0,21,0.00,,---,0.00,VWS V14.01,2013-04-19 06:54:00,
2013-04-18 23:59:00,48.7,10.6,29.44,East,100,0.0,0.0,21,0.00,,---,0.00,VWS V14.01,2013-04-19 06:59:00,